Regional Weather Roundup
Issued by NWS Jackson, KY

Home | Current Version | Previous Version | Text Only | Print | Product List | Glossary Off
Versions: 1 2 3 4 5 6 7 8 9 10 11 12 13 14 15 16 17 18 19 20 21 22 23 24 25 26 27

000
ASUS43 KJKL 280210
RWRJKL

EAST KENTUCKY HOURLY WEATHER ROUNDUP
NATIONAL WEATHER SERVICE JACKSON KY
1000 PM EDT FRI MAY 27 2016

NOTE: "FAIR" INDICATES FEW OR NO CLOUDS BELOW 12,000 FEET WITH
NO SIGNIFICANT WEATHER AND/OR OBSTRUCTIONS TO VISIBILITY.

* THESE REPORTS ARE NOT UNDER NWS QUALITY CONTROL AND MAY NOT
  REPORT WEATHER SUCH AS PRECIPITATION AND FOG.

KYZ079-080-083-085-087-088-110-112-115-119-120-280300
...EASTERN KENTUCKY...

CITY           SKY/WX    TMP DP  RH WIND       PRES   REMARKS
JACKSON        RAIN      68  64  87 SE6       30.08F
LONDON         PTCLDY    71  64  78 CALM      30.06R
SOMERSET*      PTCLDY    70  64  83 E3        30.05R
MONTICELLO*    PTCLDY    70  67  90 NE7       30.05R
WILLIAMSBURG*  PTCLDY    63  63 100 CALM      30.06R
MIDDLESBORO*   PTCLDY    67  66  97 CALM      30.09R
HARLAN APT*      N/A     66  63  88 CALM      30.10S
HAZARD APT*    LGT RAIN  68  68 100 CALM      30.08F
BLACK MTN*       N/A     64  61  88 SW1         N/A
PIKE CO APT*     N/A     69  65  88 CALM      30.09S
BIG SANDY APT* CLOUDY    74  65  74 SW5       30.08S
MOREHEAD APT*  CLOUDY    77  66  69 S6        30.06R
ASHLAND*       CLOUDY    73  68  83 CALM      30.00S
$$

KYZ035-036-041-042-044-050-067-078-099-280300
...CENTRAL KENTUCKY...

CITY           SKY/WX    TMP DP  RH WIND       PRES   REMARKS
MT STERLING*   CLOUDY    77  66  69 S7        30.05R
FLEMING/MASON* CLOUDY    74  67  76 SE3       30.04R
DANVILLE*      MOCLDY    70  64  83 CALM      30.04R
RICHMOND*      MOCLDY    75  64  69 SE6       30.04R
LEXINGTON      PTCLDY    77  65  66 SE6       30.02R
FRANKFORT      PTCLDY    77  66  68 SE3       29.99R
LOUISVILLE     CLOUDY    80  65  59 SE5       29.97R
LEBANON*         N/A     75  68  78 SE6       30.01R
GLASGOW*       CLOUDY    69  69  99 E5        29.99R
BOWLING GREEN  CLOUDY    77  67  71 CALM      29.97R
$$

KYZ091>093-OHZ055-061-077-WVZ005-015-034-035-042-280300
...SOUTHERN OHIO/WEST VIRGINIA...

CITY           SKY/WX    TMP DP  RH WIND       PRES   REMARKS
COVINGTON      MOCLDY    75  65  70 S5        30.00R
COLUMBUS       MOCLDY    80  62  54 S5        30.00R
DAYTON         MOCLDY    77  61  57 S7        30.01R
WILMINGTON     PTCLDY    74  63  68 SE3       30.02R
HUNTINGTON       N/A     78  66  66 S3        30.03R
CHARLESTON     LGT RAIN  72  63  73 S5        30.07R
PINEVILLE*       N/A     66  63  90 MISG      30.16R FOG
BECKLEY          N/A     66  61  84 S6        30.16R
BLUEFIELD        N/A     71  59  65 VRB6      30.19R
LOGAN CO APT*    N/A     73  64  73 NE3       30.09R
$$

VAZ002-007-008-TNZ017-027-036-066-071-280300
...SOUTHWEST VIRGINIA/EAST TENNESSEE...

CITY           SKY/WX    TMP DP  RH WIND       PRES   REMARKS
WISE*          CLOUDY    66  63  88 CALM      30.17R
JONESVILLE*      N/A    N/A N/A N/A MISG        N/A
ABINGDON*      MOCLDY    68  67  98 CALM      30.15R
BRISTOL        MOCLDY    68  66  93 CALM      30.12R
SEVIERVILLE*   CLEAR     72  64  78 CALM      30.06R
KNOXVILLE      PTCLDY    71  67  87 CALM      30.05R
OAK RIDGE      PTCLDY    72  68  87 CALM      30.07R
CROSSVILLE     CLEAR     71  66  84 CALM      30.09R
NASHVILLE      CLOUDY    79  63  57 SW3       29.98R
$$

...KEY TO REMARKS...
VSB - VISIBILITY IN MILES
WCI - WIND CHILL INDEX
HX  - HEAT INDEX

$$




USA.gov is the U.S. government's official web portal to all federal, state and local government web resources and services.